Salem, IL

11:52 AM CST on February 22, 2017 (GMT -0600)
Salem-Leckrone

Weather History for KSLO - November, 2012

Change the Weather History Date:

Friday, November 23, 2012

  Actual Average Record
Temperature  
Mean Temperature 44 °F -  
Max Temperature 56 °F 51 °F 68 °F (1958)
Min Temperature 31 °F 32 °F 15 °F (1970)
Degree Days  
Heating Degree Days 22    
Moisture  
Dew Point 27 °F    
Average Humidity 56    
Maximum Humidity 84    
Minimum Humidity 35    
Precipitation  
Precipitation 0.14 in - - ()
Sea Level Pressure  
Sea Level Pressure 30.22 in    
Wind  
Wind Speed 13 mph (WNW)    
Max Wind Speed 23 mph    
Max Gust Speed 33 mph    
Visibility 10 miles    
Events      
Averages and records for this station are not official NWS values.
T = Trace of Precipitation, MM = Missing Value Source: NWS Daily Summary

Daily Weather History Graph

Daily Weather History Graph

Search for Another Location

Airport or City:

Trip Planner

Search our weather history database for the weather conditions in past years. The results will help you decide how hot, cold, wet, or windy it might be!

Date:

Astronomy

Nov. 23, 2012 Rise Set
Actual Time 6:47 AM CST 4:37 PM CST
Civil Twilight 6:18 AM CST 5:06 PM CST
Nautical Twilight 5:45 AM CST 5:38 PM CST
Astronomical Twilight 5:13 AM CST 6:10 PM CST
Moon 1:49 PM CST (11/23) 2:08 AM CST (11/23)
Length of Visible Light 10h 48m
Length of Day
9h 50m
Waxing Gibbous, 80% of the Moon is Illuminated
Nov 23
Waxing Gibbous
Nov 28
Full
Dec 6
Last Quarter
Dec 13
New
Dec 19
First Quarter

Hourly Weather History & Observations

Time (CST) Temp. Windchill Dew Point Humidity Pressure Visibility Wind Dir Wind Speed Gust Speed Precip Events Conditions
12:15 AM 56.5 °F - 51.8 °F 84% 30.04 in 10.0 mi WSW 12.7 mph 17.3 mph N/A   Overcast
12:35 AM 56.7 °F - 51.6 °F 83% 30.04 in 10.0 mi WSW 12.7 mph 18.4 mph N/A   Overcast
12:55 AM 56.5 °F - 51.4 °F 83% 30.04 in 10.0 mi West 12.7 mph - N/A   Overcast
1:15 AM 56.5 °F - 50.7 °F 81% 30.06 in 10.0 mi WNW 12.7 mph 20.7 mph N/A   Overcast
1:35 AM 54.0 °F - 41.4 °F 62% 30.08 in 10.0 mi NNW 17.3 mph 28.8 mph N/A   Overcast
1:55 AM 52.2 °F - 41.0 °F 66% 30.09 in 10.0 mi NW 15.0 mph 18.4 mph N/A   Mostly Cloudy
2:15 AM 50.5 °F - 39.2 °F 65% 30.10 in 10.0 mi WNW 13.8 mph 21.9 mph N/A   Clear
2:35 AM 50.0 °F - 35.6 °F 58% 30.11 in 10.0 mi NW 15.0 mph 24.2 mph N/A   Clear
2:55 AM 48.4 °F - 35.6 °F 61% 30.12 in 10.0 mi NW 17.3 mph - N/A   Clear
3:15 AM 47.5 °F - 34.0 °F 59% 30.13 in 10.0 mi NW 18.4 mph 25.3 mph N/A   Clear
3:35 AM 46.8 °F - 34.0 °F 61% 30.13 in 10.0 mi NW 15.0 mph 18.4 mph N/A   Clear
3:55 AM 45.9 °F 40.8 °F 34.3 °F 64% 30.13 in 10.0 mi NW 10.4 mph - N/A   Clear
4:15 AM 45.0 °F 41.2 °F 34.5 °F 67% 30.14 in 10.0 mi NW 6.9 mph - N/A   Clear
4:35 AM 44.6 °F 40.7 °F 35.6 °F 71% 30.13 in 10.0 mi WNW 6.9 mph - N/A   Clear
4:55 AM 44.4 °F 40.5 °F 34.0 °F 67% 30.13 in 10.0 mi WNW 6.9 mph - N/A   Clear
5:15 AM 43.7 °F 39.7 °F 33.8 °F 68% 30.14 in 10.0 mi WNW 6.9 mph - N/A   Clear
5:35 AM 43.9 °F 39.3 °F 32.2 °F 63% 30.14 in 10.0 mi WNW 8.1 mph - N/A   Clear
5:55 AM 43.7 °F 38.1 °F 31.6 °F 63% 30.15 in 10.0 mi West 10.4 mph - N/A   Clear
6:15 AM 43.0 °F 38.8 °F 31.6 °F 64% 30.15 in 10.0 mi West 6.9 mph - N/A   Clear
6:35 AM 41.9 °F 36.3 °F 32.7 °F 70% 30.15 in 10.0 mi West 9.2 mph - N/A   Clear
6:55 AM 42.1 °F 36.6 °F 32.0 °F 67% 30.16 in 10.0 mi West 9.2 mph - N/A   Clear
7:15 AM 41.9 °F 36.9 °F 32.0 °F 68% 30.16 in 10.0 mi West 8.1 mph - N/A   Clear
7:35 AM 42.3 °F 36.8 °F 32.0 °F 67% 30.17 in 10.0 mi West 9.2 mph - N/A   Clear
7:55 AM 43.2 °F 37.0 °F 31.5 °F 63% 30.18 in 10.0 mi WNW 11.5 mph 16.1 mph N/A   Clear
8:15 AM 43.9 °F 37.2 °F 31.1 °F 61% 30.18 in 10.0 mi WNW 13.8 mph 17.3 mph N/A   Clear
8:35 AM 44.6 °F 37.8 °F 31.5 °F 60% 30.19 in 10.0 mi WNW 15.0 mph 23.0 mph N/A   Mostly Cloudy
8:55 AM 43.9 °F 36.8 °F 31.3 °F 61% 30.20 in 10.0 mi WNW 15.0 mph 24.2 mph N/A   Overcast
9:15 AM 43.9 °F 36.8 °F 31.6 °F 62% 30.21 in 10.0 mi WNW 15.0 mph 21.9 mph N/A   Overcast
9:35 AM 43.7 °F 36.3 °F 31.3 °F 62% 30.21 in 10.0 mi NW 16.1 mph 24.2 mph N/A   Overcast
9:55 AM 44.4 °F 37.5 °F 31.1 °F 60% 30.21 in 10.0 mi WNW 15.0 mph 24.2 mph N/A   Scattered Clouds
10:15 AM 43.7 °F 34.7 °F 27.7 °F 53% 30.23 in 10.0 mi WNW 23.0 mph 28.8 mph N/A   Mostly Cloudy
10:35 AM 43.2 °F 34.2 °F 26.6 °F 52% 30.24 in 10.0 mi WNW 21.9 mph 27.6 mph N/A   Overcast
10:55 AM 42.8 °F 34.5 °F 28.4 °F 57% 30.23 in 10.0 mi WNW 18.4 mph 23.0 mph N/A   Overcast
11:15 AM 43.3 °F 35.0 °F 28.0 °F 55% 30.23 in 10.0 mi WNW 19.6 mph 27.6 mph N/A   Mostly Cloudy
11:35 AM 43.7 °F 35.4 °F 26.4 °F 51% 30.22 in 10.0 mi WNW 19.6 mph 27.6 mph N/A   Scattered Clouds
11:55 AM 44.6 °F 38.4 °F 26.6 °F 49% 30.22 in 10.0 mi WNW 12.7 mph 25.3 mph N/A   Clear
12:15 PM 44.2 °F 36.4 °F 24.8 °F 46% 30.22 in 10.0 mi WNW 18.4 mph 29.9 mph N/A   Clear
12:35 PM 44.4 °F 36.6 °F 25.0 °F 46% 30.22 in 10.0 mi WNW 18.4 mph 25.3 mph N/A   Clear
12:55 PM 44.1 °F 36.2 °F 22.3 °F 42% 30.22 in 10.0 mi WNW 18.4 mph 32.2 mph N/A   Clear
1:15 PM 44.2 °F 36.2 °F 22.5 °F 42% 30.22 in 10.0 mi WNW 19.6 mph 27.6 mph N/A   Clear
1:35 PM 44.6 °F 36.6 °F 21.6 °F 40% 30.23 in 10.0 mi WNW 19.6 mph 25.3 mph N/A   Clear
1:55 PM 44.1 °F 36.2 °F 17.8 °F 35% 30.23 in 10.0 mi NW 18.4 mph 33.4 mph N/A   Clear
2:15 PM 43.7 °F 36.0 °F 19.0 °F 37% 30.23 in 10.0 mi NW 17.3 mph 24.2 mph N/A   Clear
2:35 PM 43.3 °F 35.0 °F 19.0 °F 38% 30.23 in 10.0 mi WNW 19.6 mph 28.8 mph N/A   Clear
2:55 PM 42.8 °F 34.5 °F 18.3 °F 37% 30.24 in 10.0 mi WNW 18.4 mph 27.6 mph N/A   Clear
3:15 PM 42.3 °F 34.1 °F 18.5 °F 39% 30.25 in 10.0 mi NW 17.3 mph 24.2 mph N/A   Clear
3:35 PM 41.9 °F 33.7 °F 18.7 °F 39% 30.25 in 10.0 mi NW 17.3 mph 21.9 mph N/A   Clear
3:55 PM 41.2 °F 33.4 °F 18.9 °F 41% 30.25 in 10.0 mi NW 15.0 mph 25.3 mph N/A   Clear
4:15 PM 40.6 °F 32.7 °F 18.1 °F 40% 30.26 in 10.0 mi NW 15.0 mph 21.9 mph N/A   Clear
4:35 PM 39.6 °F 32.5 °F 20.7 °F 47% 30.26 in 10.0 mi NW 11.5 mph 17.3 mph N/A   Clear
4:55 PM 39.2 °F 32.5 °F 19.6 °F 45% 30.26 in 10.0 mi WNW 10.4 mph - N/A   Clear
5:15 PM 38.7 °F 30.9 °F 19.8 °F 47% 30.28 in 10.0 mi WNW 12.7 mph 17.3 mph N/A   Clear
5:35 PM 37.9 °F 30.0 °F 19.2 °F 47% 30.29 in 10.0 mi WNW 12.7 mph 19.6 mph N/A   Clear
5:55 PM 37.4 °F 28.9 °F 18.5 °F 46% 30.30 in 10.0 mi NW 13.8 mph - N/A   Clear
6:15 PM 36.5 °F 31.0 °F 19.2 °F 50% 30.30 in 10.0 mi NW 6.9 mph - N/A   Clear
6:35 PM 36.0 °F 29.6 °F 19.6 °F 51% 30.30 in 10.0 mi WNW 8.1 mph - N/A   Clear
6:55 PM 35.8 °F 30.9 °F 20.1 °F 53% 30.31 in 10.0 mi NW 5.8 mph - N/A   Clear
7:15 PM 35.2 °F 27.6 °F 20.1 °F 54% 30.32 in 10.0 mi NW 10.4 mph - N/A   Clear
7:35 PM 34.9 °F 26.2 °F 19.6 °F 54% 30.32 in 10.0 mi NW 12.7 mph 18.4 mph N/A   Clear
7:55 PM 34.7 °F 25.5 °F 18.9 °F 52% 30.32 in 10.0 mi NW 13.8 mph 20.7 mph N/A   Clear
8:15 PM 34.2 °F 26.2 °F 18.9 °F 54% 30.32 in 10.0 mi NW 10.4 mph - N/A   Clear
8:35 PM 33.8 °F 27.0 °F 19.4 °F 56% 30.32 in 10.0 mi NW 8.1 mph - N/A   Clear
8:55 PM 33.3 °F 24.1 °F 19.0 °F 56% 30.32 in 10.0 mi NW 12.7 mph 19.6 mph N/A   Clear
9:15 PM 33.1 °F 23.9 °F 18.7 °F 56% 30.32 in 10.0 mi NW 12.7 mph - N/A   Clear
9:35 PM 32.5 °F 24.8 °F 19.4 °F 58% 30.32 in 10.0 mi NW 9.2 mph - N/A   Clear
9:55 PM 32.0 °F 24.8 °F 19.9 °F 61% 30.32 in 10.0 mi NW 8.1 mph - N/A   Clear
10:15 PM 32.0 °F 23.6 °F 19.0 °F 59% 30.32 in 10.0 mi NW 10.4 mph 16.1 mph N/A   Clear
10:35 PM 32.0 °F 22.5 °F 18.0 °F 56% 30.32 in 10.0 mi NNW 12.7 mph 17.3 mph N/A   Clear
10:55 PM 32.0 °F 23.6 °F 17.6 °F 55% 30.32 in 10.0 mi NW 10.4 mph - N/A   Clear
11:15 PM 31.6 °F 22.6 °F 18.1 °F 57% 30.32 in 10.0 mi NW 11.5 mph - N/A   Clear
11:35 PM 31.1 °F 23.7 °F 18.1 °F 59% 30.32 in 10.0 mi NW 8.1 mph - N/A   Clear
11:55 PM 31.1 °F 23.7 °F 17.4 °F 57% 30.32 in 10.0 mi NW 8.1 mph - N/A   Clear